Regional Weather Roundup
Issued by NWS Upton, NY

Current Version | Previous Version | Text Only | Print | Product List | Glossary On
Versions: 1 2 3 4 5 6 7 8 9 10 11 12 13 14 15 16 17 18 19 20 21 22 23 24 25 26 27 28 29 30 31 32 33 34 35 36 37 38 39 40 41 42 43 44 45 46 47 48 49 50
356 ASUS41 KOKX 240505 RWROKX REGIONAL WEATHER ROUNDUP NATIONAL WEATHER SERVICE NEW YORK NY 100 AM EDT TUE MAY 24 2016 NOTE: "FAIR" INDICATES FEW OR NO CLOUDS BELOW 12,000 FEET WITH NO SIGNIFICANT WEATHER AND/OR OBSTRUCTIONS TO VISIBILITY. NYZ071-072-176-178-NJZ106-104-240600- NEW YORK CITY METRO AREA CITY SKY/WX TMP DP RH WIND PRES REMARKS CENTRAL PARK CLOUDY 62 48 60 VRB3 29.93F LAGUARDIA APRT LGT RAIN 64 54 69 SW6 29.90F KENNEDY INTL LGT RAIN 63 49 60 W9 29.92F NEWARK/LIBERTY LGT RAIN 62 53 72 SE5 29.91F BRNX BOT. GARD N/A 63 46 55 SW7 29.90F TETERBORO LGT RAIN 62 49 62 SW3 29.90F $$ NYZ177-179-078>081-240600- LONG ISLAND NEW YORK CITY SKY/WX TMP DP RH WIND PRES REMARKS FARMINGDALE CLOUDY 58 52 80 NW3 29.91F ISLIP LGT RAIN 56 52 86 W10 29.90F FOG SHIRLEY LGT RAIN 57 54 89 NW10 29.89F RIVERHEAD N/A 55 54 94 CALM 29.88F WESTHAMPTON RAIN 50 N/A N/A NW10 29.88F EAST HAMPTON CLOUDY 56 54 94 NE5 29.87F MONTAUK POINT N/A 54 53 97 N7 29.89S $$ NYZ052-065-067-240600- HUDSON VALLEY CITY SKY/WX TMP DP RH WIND PRES REMARKS WHITE PLAINS LGT RAIN N/A N/A N/A MISG N/A NEWBURGH MOCLDY 61 50 67 CALM 29.91F MONTGOMERY CLOUDY 60 52 74 S3 29.90S POUGHKEEPSIE CLOUDY 64 49 57 SE3 29.89F ALBANY CLOUDY 65 41 41 NE3 29.90S $$ NJZ001-105-106-008-010-013-015-019>022-104-240600- NEW JERSEY CITY SKY/WX TMP DP RH WIND PRES REMARKS NEWARK/LIBERTY LGT RAIN 62 53 72 SE5 29.91F TETERBORO LGT RAIN 62 49 62 SW3 29.90F CALDWELL CLOUDY 59 53 80 CALM 29.91F MORRISTOWN CLOUDY 57 54 88 CALM 29.91F SOMERVILLE CLOUDY 59 56 89 CALM 29.89S SUSSEX CLOUDY 61 53 75 SE3 29.89F ANDOVER N/A 60 55 83 SW5 29.89F TRENTON LGT RAIN 59 56 89 CALM 29.92R MILLVILLE LGT RAIN 56 54 93 W7 29.93F ATLANTIC CITY CLOUDY 57 54 89 CALM 29.92F WRIGHTSTOWN CLOUDY 56 53 88 W3 29.91S TOMS RIVER CLOUDY 57 50 77 CALM 29.92F BELMAR LGT RAIN 59 51 75 CALM 29.93F $$ PAZ047>061-062-071-240600- EASTERN PENNSYLVANIA CITY SKY/WX TMP DP RH WIND PRES REMARKS PHILADELPHIA CLOUDY 60 51 72 S6 29.94S ALLENTOWN MOCLDY 61 54 77 S6 29.90S SCRANTON PTCLDY 58 47 66 CALM 29.91F $$ CTZ002-004>006-009-010-012-RIZ004-006-007-MAZ004-011-015-240600- SOUTHERN NEW ENGLAND IN CT CITY SKY/WX TMP DP RH WIND PRES REMARKS BRADLEY INTL LGT RAIN 61 52 72 NW5 29.90S HARTFORD LGT RAIN 60 56 86 CALM 29.90F DANBURY LGT RAIN 57 52 83 SE3 29.94R WTRBRY/OXFORD N/A 55 48 76 NW3 29.95S BRIDGEPORT LGT RAIN 60 53 77 W7 29.91F MERIDEN LGT RAIN 58 55 90 CALM 29.91F NEW HAVEN RAIN 59 52 77 W5 29.90F CHESTER LGT RAIN 57 54 88 CALM 29.89F GROTON LGT RAIN 57 57 100 NW3 29.88F FOG WILLIMANTIC CLOUDY 62 52 69 E3 29.90F IN RI CITY SKY/WX TMP DP RH WIND PRES REMARKS PROVIDENCE CLOUDY 63 51 65 N9 29.89F BLOCK ISLAND LGT RAIN 54 53 97 NW7 29.88F WESTERLY LGT RAIN 57 53 86 NW5 29.88F FOG IN MA CITY SKY/WX TMP DP RH WIND PRES REMARKS BOSTON CLOUDY 60 52 74 N7 29.92S WORCESTER CLOUDY 59 47 64 N6 29.93F WESTFIELD CLOUDY 62 49 62 SE6 29.91R PROVINCETOWN CLOUDY 53 51 93 NE7 29.91F NANTUCKET CLOUDY 51 49 92 NE10 29.86F FOG $$ ANZ330-335-338-340-345-350-353-355-240600- COASTAL MARINE OBSERVATIONS STATION/POSITION TIME SKY/WX TEMP WIND PRES VSBY WAVE AIR SEA DIR/SP/G HT/PER (UTC) (F) (DEG/KT/KT) (MB) (MI) (FT/S) NY HARB ENTRANCE 0450 60 57 290/ 12/ 14 1012.3 3/ 8 20S FIRE ISLAND 0350 58 56 310/ 10/ 12 1011.9 3/ 8 GREAT SOUTH BAY 0400 60 63 280/ 10/ 12 N/A 23 SSW MONTAUK P 0450 56 54 340/ 10/ 12 1010.8 3/10 15 E BARNEGAT LI 0422 54 N/A 3/ 8 HUDSON CANYON 0350 53 52 1011.0 4/ 9 KINGS POINT 0400 62 57 1012.8 EXECUTION ROCKS NOT AVBL CENTRAL LI SOUND 0400 58 290/ 6/ 8 N/A 1 EASTERN LI SOUND 0400 54 52 320/ 8/ 12 N/A ROBBINS REEF 0400 62 240/ 7/ 8 1012.7 $$ >>>>>>>>>>>>>>>>>>>>>>>>>>>> KEY <<<<<<<<<<<<<<<<<<<<<<<<<<< > < > SKY/WX - SKY CONDITION/PRESENT WEATHER < > TMP - TEMPERATURE IN FAHRENHEIT < > DP - DEWPOINT IN FAHRENHEIT < > RH - RELATIVE HUMIDITY IN PERCENT < > WIND - DIRECTION AND SPEED IN MPH < > PRES - MEAN SEA LEVEL PRESSURE IN INCHES OF HG < > WCI - WIND CHILL INDEX < > VSB - VISIBILITY IN MILES < > HX - HEAT INDEX < > TC - TEMPERATURE IN CELSIUS < > VRB - VARIABLE WIND DIRECTION < > < >>>>>>>>>>>>>>>>>>>>>>>>>>>> KEY <<<<<<<<<<<<<<<<<<<<<<<<<<<

USA.gov is the U.S. government's official web portal to all federal, state and local government web resources and services.